Location: Saleratus Ranch
(37.7914°N, 109.6108°W)
Time: 15:57:22
(UTC-07:00)

Tiangong 2 - Visible Passes

Search period start: 16 January 2018 00:00
Search period end: 26 January 2018 00:00
Orbit: 384 x 390 km, 42.8° (Epoch: 16 January)

Date Brightness Start Highest point End Pass type
(mag) Time Alt. Az. Time Alt. Az. Time Alt. Az.
16 Jan 2.5 06:35:36 10° SW 06:38:34 38° SSE 06:41:34 10° E visible
17 Jan 3.4 05:38:58 18° S 05:40:02 21° SE 05:42:31 10° E visible
18 Jan 1.2 06:16:02 22° SW 06:17:55 73° SSE 06:21:05 10° ENE visible
19 Jan 3.3 05:20:34 26° E 05:20:34 26° E 05:22:18 10° E visible
19 Jan 1.6 06:53:00 10° W 06:56:05 45° NNW 06:59:09 10° ENE visible
20 Jan 1.0 05:57:12 65° NNW 05:57:18 66° NNW 06:00:29 10° ENE visible
21 Jan 4.4 05:01:25 12° ENE 05:01:25 12° ENE 05:01:46 10° ENE visible
21 Jan 2.0 06:33:42 18° WNW 06:35:34 35° N 06:38:31 10° ENE visible
22 Jan 2.6 05:37:49 30° NE 05:37:49 30° NE 05:39:47 10° ENE visible
23 Jan 2.2 06:14:08 26° NW 06:15:03 31° N 06:17:56 10° ENE visible
24 Jan 3.8 05:18:08 17° NE 05:18:08 17° NE 05:19:07 10° ENE visible
24 Jan 2.0 06:50:24 10° WNW 06:53:22 37° N 06:56:22 10° E visible
25 Jan 2.2 05:54:22 32° N 05:54:30 32° N 05:57:24 10° ENE visible
